Weather History for Platteville, WI

Change the Weather History Date:

Thursday, September 13, 2012

  Actual Average (KDBQ) Record (KDBQ)
Temperature  
Mean Temperature 55 °F 63 °F  
Max Temperature 60 °F 74 °F 96 °F (1939)
Min Temperature 48 °F 53 °F 35 °F (1953)
Degree Days  
Heating Degree Days 10 4  
Month to date heating degree days 35  
Since 1 July heating degree days 62  
Cooling Degree Days 0 2  
Month to date cooling degree days 39  
Year to date cooling degree days 615  
Growing Degree Days 5 (Base 50)    
Moisture  
Dew Point 48 °F    
Average Humidity 80    
Maximum Humidity 94    
Minimum Humidity 48    
Precipitation  
Precipitation 0.04 in 0.11 in 3.67 in (1961)
Month to date precipitation 1.53  
Year to date precipitation 27.51  
Snow  
Snow 0.00 in 0.00 in - ()
Month to date snowfall 0.0  
Since 1 July snowfall 0.0  
Since 1 September snowfall 0.0  
Snow Depth -    
Sea Level Pressure  
Sea Level Pressure 30.33 in    
Wind  
Wind Speed 8 mph (NNW)    
Max Wind Speed 18 mph    
Max Gust Speed 24 mph    
Visibility 9 miles    
Events      
T = Trace of Precipitation, MM = Missing Value Source: NWS Daily Summary

Daily Weather History Graph

Daily Weather History Graph

Search for Another Location

Airport:

Trip Planner

Search our weather history database for the weather conditions in past years. The results will help you decide how hot, cold, wet, or windy it might be!

Date:

Astronomy

Sep. 13, 2012 Rise Set
Actual Time 6:39 AM CDT 7:14 PM CDT
Civil Twilight 6:11 AM CDT 7:42 PM CDT
Nautical Twilight 5:37 AM CDT 8:16 PM CDT
Astronomical Twilight 5:03 AM CDT 8:50 PM CDT
Moon 3:56 AM CDT (9/13) 5:38 PM CDT (9/13)
Length of Visible Light 13h 31m
Length of Day
12h 34m
Waning Crescent, 7% of the Moon is Illuminated
Sep 13
Waning Crescent
Sep 15
New
Sep 22
First Quarter
Sep 29
Full
Oct 8
Last Quarter

Hourly Weather History & Observations

Time (CDT) Temp. Dew Point Humidity Pressure Visibility Wind Dir Wind Speed Gust Speed Precip Events Conditions
12:15 AM 60.8 °F 41.0 °F 48% 30.19 in 10.0 mi North 8.1 mph - N/A   Overcast
12:35 AM 60.8 °F 42.8 °F 52% 30.20 in 10.0 mi North 8.1 mph - N/A   Overcast
1:35 AM 59.0 °F 46.4 °F 63% 30.23 in 10.0 mi North 11.5 mph 17.3 mph N/A   Overcast
1:55 AM 59.0 °F 48.2 °F 67% 30.24 in 10.0 mi North 16.1 mph 19.6 mph N/A   Overcast
2:15 AM 55.4 °F 51.8 °F 88% 30.25 in 10.0 mi NNW 11.5 mph 17.3 mph N/A   Overcast
2:35 AM 55.4 °F 50.0 °F 82% 30.25 in 10.0 mi North 18.4 mph 24.2 mph N/A   Overcast
2:55 AM 53.6 °F 48.2 °F 82% 30.25 in 10.0 mi North 17.3 mph 24.2 mph N/A   Overcast
3:35 AM 51.8 °F 44.6 °F 76% 30.27 in 10.0 mi North 16.1 mph 21.9 mph N/A   Overcast
3:55 AM 51.8 °F 44.6 °F 76% 30.27 in 10.0 mi North 16.1 mph - N/A   Overcast
4:35 AM 51.8 °F 44.6 °F 76% 30.29 in 10.0 mi North 15.0 mph 20.7 mph N/A   Overcast
4:55 AM 51.8 °F 44.6 °F 76% 30.28 in 10.0 mi North 10.4 mph - N/A   Overcast
5:15 AM 51.8 °F 44.6 °F 76% 30.29 in 10.0 mi North 13.8 mph 18.4 mph N/A   Overcast
5:35 AM 51.8 °F 44.6 °F 76% 30.29 in 10.0 mi North 12.7 mph 16.1 mph N/A   Overcast
6:15 AM 51.8 °F 44.6 °F 76% 30.30 in 10.0 mi North 9.2 mph - N/A   Overcast
6:35 AM 51.8 °F 44.6 °F 76% 30.31 in 10.0 mi North 9.2 mph - N/A   Overcast
7:35 AM 51.8 °F 46.4 °F 82% 30.33 in 10.0 mi NNW 6.9 mph - N/A   Overcast
7:55 AM 51.8 °F 46.4 °F 82% 30.33 in 10.0 mi North 8.1 mph - N/A   Overcast
8:15 AM 50.0 °F 46.4 °F 87% 30.35 in 5.0 mi NW 4.6 mph - N/A   Overcast
8:35 AM 51.8 °F 46.4 °F 82% 30.35 in 10.0 mi North 4.6 mph - N/A   Overcast
8:55 AM 51.8 °F 46.4 °F 82% 30.34 in 10.0 mi NE 3.5 mph - N/A   Overcast
9:15 AM 51.8 °F 46.4 °F 82% 30.35 in 7.0 mi NNW 3.5 mph - 0.01 in   Overcast
9:35 AM 51.8 °F 46.4 °F 82% 30.35 in 10.0 mi NE 3.5 mph - 0.03 in   Overcast
9:55 AM 51.8 °F 48.2 °F 88% 30.34 in 10.0 mi ENE 5.8 mph - 0.04 in   Overcast
10:15 AM 51.8 °F 48.2 °F 88% 30.34 in 10.0 mi ENE 4.6 mph - N/A   Overcast
10:35 AM 51.8 °F 48.2 °F 88% 30.35 in 10.0 mi East 4.6 mph - N/A   Overcast
10:55 AM 53.6 °F 48.2 °F 82% 30.34 in 10.0 mi East 5.8 mph - N/A   Overcast
11:15 AM 53.6 °F 48.2 °F 82% 30.33 in 10.0 mi East 6.9 mph - N/A   Overcast
11:35 AM 53.6 °F 48.2 °F 82% 30.35 in 10.0 mi East 4.6 mph - N/A   Overcast
11:55 AM 53.6 °F 48.2 °F 82% 30.35 in 10.0 mi Calm Calm - N/A   Overcast
12:35 PM 53.6 °F 48.2 °F 82% 30.35 in 10.0 mi Calm Calm - N/A   Mostly Cloudy
12:55 PM 55.4 °F 50.0 °F 82% 30.36 in 10.0 mi NW 4.6 mph - N/A   Unknown
1:35 PM 55.4 °F 48.2 °F 77% 30.36 in 10.0 mi NNW 4.6 mph - N/A   Unknown
1:55 PM 55.4 °F 48.2 °F 77% 30.35 in 10.0 mi Calm Calm - N/A   Mostly Cloudy
2:15 PM 57.2 °F 50.0 °F 77% 30.35 in 10.0 mi Calm Calm - N/A   Overcast
2:35 PM 57.2 °F 50.0 °F 77% 30.34 in 10.0 mi NNW 3.5 mph - N/A   Scattered Clouds
2:55 PM 57.2 °F 50.0 °F 77% 30.34 in 10.0 mi NW 4.6 mph - N/A   Clear
3:15 PM 59.0 °F 50.0 °F 72% 30.34 in 10.0 mi Calm Calm - N/A   Clear
3:35 PM 59.0 °F 50.0 °F 72% 30.34 in 10.0 mi WNW 4.6 mph - N/A   Clear
4:15 PM 59.0 °F 50.0 °F 72% 30.33 in 10.0 mi WNW 4.6 mph - N/A   Clear
4:55 PM 59.0 °F 50.0 °F 72% 30.33 in 10.0 mi West 3.5 mph - N/A   Clear
5:55 PM 59.0 °F 50.0 °F 72% 30.33 in 10.0 mi Calm Calm - N/A   Clear
6:15 PM 59.0 °F 50.0 °F 72% 30.34 in 10.0 mi West 3.5 mph - N/A   Clear
6:35 PM 57.2 °F 50.0 °F 77% 30.34 in 10.0 mi Calm Calm - N/A   Clear
6:55 PM 55.4 °F 50.0 °F 82% 30.34 in 10.0 mi Calm Calm - N/A   Clear
7:15 PM 55.4 °F 50.0 °F 82% 30.34 in 10.0 mi Calm Calm - N/A   Clear
7:35 PM 53.6 °F 50.0 °F 88% 30.35 in 10.0 mi SW 4.6 mph - N/A   Clear
7:55 PM 53.6 °F 50.0 °F 88% 30.35 in 10.0 mi Calm Calm - N/A   Clear
8:15 PM 53.6 °F 50.0 °F 88% 30.36 in 10.0 mi SW 3.5 mph - N/A   Clear
8:35 PM 53.6 °F 50.0 °F 88% 30.36 in 10.0 mi Calm Calm - N/A   Clear
8:55 PM 51.8 °F 50.0 °F 94% 30.36 in 10.0 mi SW 3.5 mph - N/A   Clear
9:15 PM 51.8 °F 50.0 °F 94% 30.36 in 10.0 mi WSW 4.6 mph - N/A   Clear
9:35 PM 51.8 °F 50.0 °F 94% 30.36 in 10.0 mi SW 3.5 mph - N/A   Clear
9:55 PM 51.8 °F 48.2 °F 88% 30.36 in 1.2 mi Calm Calm - N/A   Unknown
10:15 PM 50.0 °F 48.2 °F 94% 30.37 in 4.0 mi SSW 3.5 mph - N/A   Clear
10:35 PM 50.0 °F 48.2 °F 94% 30.36 in 10.0 mi SW 3.5 mph - N/A   Clear
10:55 PM 50.0 °F 46.4 °F 87% 30.36 in 5.0 mi SW 3.5 mph - N/A   Clear
11:15 PM 50.0 °F 46.4 °F 87% 30.36 in 5.0 mi Calm Calm - N/A   Clear
11:35 PM 50.0 °F 46.4 °F 87% 30.36 in 3.0 mi WSW 3.5 mph - N/A   Clear
11:55 PM 48.2 °F 46.4 °F 93% 30.36 in 2.0 mi WSW 3.5 mph - N/A   Clear